When you browse on this site, cookies collect data to enhance your experience and personalize the content and advertising you see.
Visit our Privacy Policy to learn more. By continuing to use the site, you agree to this use of cookies and data.
  • In Hungary
  • List of Countries
  • For 7 days
  • Water Temperature
  • Satellite Maps
  • Weather Map
  • News
  • Weather Widgets
  • user-avatar
    Login

    Hourly Weather Gumi

    Today, 16 January, Wednesday

    Time Temperature Precipitation Wind Pressure Humidity
    00:00 +1°C° 0 mm 4 mps 660 mmHg 48%
    01:00 +1°C° 0 mm 4 mps 659 mmHg 46%
    02:00 +3°C° 0 mm 4 mps 659 mmHg 44%
    03:00 +2°C° 0 mm 5 mps 659 mmHg 43%
    04:00 +2°C° 0 mm 5 mps 658 mmHg 42%
    05:00 +2°C° 0 mm 5 mps 658 mmHg 41%
    06:00 +2°C° 0 mm 5 mps 657 mmHg 41%
    07:00 +4°C° 0 mm 4 mps 658 mmHg 40%
    08:00 +4°C° 0 mm 4 mps 658 mmHg 38%
    09:00 +5°C° 0 mm 4 mps 658 mmHg 37%
    10:00 +7°C° 0 mm 4 mps 658 mmHg 33%
    11:00 +10°C° 0 mm 4 mps 659 mmHg 30%
    12:00 +11°C° 0 mm 3 mps 659 mmHg 26%
    13:00 +11°C° 0 mm 3 mps 659 mmHg 28%
    14:00 +10°C° 0 mm 3 mps 659 mmHg 30%
    15:00 +10°C° 0 mm 3 mps 659 mmHg 32%
    16:00 +8°C° 0 mm 3 mps 659 mmHg 35%
    17:00 +5°C° 0 mm 4 mps 659 mmHg 39%
    18:00 +3°C° 0 mm 4 mps 659 mmHg 42%
    19:00 +3°C° 0 mm 3 mps 659 mmHg 42%
    20:00 +2°C° 0 mm 3 mps 659 mmHg 43%
    21:00 +2°C° 0 mm 3 mps 659 mmHg 44%
    22:00 +2°C° 0 mm 2 mps 660 mmHg 49%
    23:00 +1°C° 0 mm 2 mps 660 mmHg 54%

    Tomorrow, 17 January, Thursday

    Time Temperature Precipitation Wind Pressure Humidity
    00:00 +1°C° 0 mm 2 mps 660 mmHg 59%
    01:00 -1°C° 0 mm 2 mps 660 mmHg 66%
    02:00 0°C° 0 mm 1 mps 660 mmHg 72%
    03:00 -1°C° 0 mm 1 mps 660 mmHg 78%
    04:00 -1°C° 0 mm 1 mps 660 mmHg 80%
    05:00 -1°C° 0 mm 1 mps 660 mmHg 81%
    06:00 -1°C° 0 mm 1 mps 661 mmHg 82%
    07:00 -1°C° 0.1 mm 1 mps 661 mmHg 81%
    08:00 -1°C° 0.1 mm 1 mps 662 mmHg 80%
    09:00 -3°C° 0.1 mm 2 mps 662 mmHg 80%
    10:00 -3°C° 0.3 mm 2 mps 662 mmHg 77%
    11:00 -3°C° 0.3 mm 2 mps 662 mmHg 75%
    12:00 -4°C° 0.3 mm 3 mps 662 mmHg 72%
    13:00 -4°C° 0.6 mm 3 mps 663 mmHg 77%
    14:00 -5°C° 0.6 mm 3 mps 663 mmHg 83%
    15:00 -5°C° 0.6 mm 3 mps 663 mmHg 88%
    16:00 -5°C° 0.5 mm 2 mps 664 mmHg 88%
    17:00 -5°C° 0.5 mm 2 mps 664 mmHg 88%
    18:00 -5°C° 0.5 mm 2 mps 665 mmHg 89%
    19:00 -5°C° 0.2 mm 2 mps 665 mmHg 88%
    20:00 -5°C° 0.2 mm 2 mps 665 mmHg 87%
    21:00 -5°C° 0.2 mm 2 mps 666 mmHg 87%
    22:00 -5°C° 0.2 mm 2 mps 666 mmHg 86%
    23:00 -3°C° 0.2 mm 1 mps 666 mmHg 86%

    Day after tomorrow, 18 January, Friday

    Time Temperature Precipitation Wind Pressure Humidity
    00:00 -3°C° 0.2 mm 1 mps 667 mmHg 85%
    01:00 -3°C° 0.2 mm 1 mps 667 mmHg 86%
    02:00 -3°C° 0.2 mm 1 mps 667 mmHg 86%
    03:00 -3°C° 0.2 mm 1 mps 668 mmHg 87%
    04:00 -3°C° 0.1 mm 1 mps 668 mmHg 85%
    05:00 -3°C° 0.1 mm 1 mps 668 mmHg 83%
    06:00 -3°C° 0.1 mm 1 mps 668 mmHg 82%
    07:00 -3°C° 0 mm 1 mps 668 mmHg 80%
    08:00 -2°C° 0 mm 1 mps 669 mmHg 78%
    09:00 -2°C° 0 mm 1 mps 669 mmHg 76%
    10:00 -1°C° 0 mm 1 mps 669 mmHg 74%
    11:00 -1°C° 0 mm 1 mps 669 mmHg 72%
    12:00 0°C° 0 mm 1 mps 669 mmHg 70%
    13:00 0°C° 0 mm 1 mps 669 mmHg 72%
    14:00 0°C° 0 mm 1 mps 669 mmHg 74%
    15:00 0°C° 0 mm 1 mps 669 mmHg 76%
    16:00 -1°C° 0 mm 1 mps 669 mmHg 78%
    17:00 -2°C° 0 mm 1 mps 669 mmHg 81%
    18:00 -3°C° 0 mm 1 mps 669 mmHg 83%
    19:00 -3°C° 0 mm 1 mps 669 mmHg 79%
    20:00 -3°C° 0 mm 1 mps 669 mmHg 75%
    21:00 -3°C° 0 mm 1 mps 669 mmHg 70%
    22:00 -3°C° 0 mm 1 mps 669 mmHg 67%
    23:00 -3°C° 0 mm 1 mps 668 mmHg 65%

    19 January, Saturday

    Time Temperature Precipitation Wind Pressure Humidity
    00:00 -3°C° 0 mm 1 mps 668 mmHg 62%
    01:00 -5°C° 0 mm 2 mps 668 mmHg 59%
    02:00 -5°C° 0 mm 2 mps 668 mmHg 56%
    03:00 -5°C° 0 mm 2 mps 668 mmHg 53%
    04:00 -5°C° 0 mm 2 mps 668 mmHg 50%
    05:00 -6°C° 0 mm 2 mps 668 mmHg 47%
    06:00 -6°C° 0 mm 2 mps 668 mmHg 44%
    07:00 -5°C° 0 mm 2 mps 668 mmHg 43%
    08:00 -4°C° 0 mm 2 mps 668 mmHg 41%
    09:00 -1°C° 0 mm 1 mps 669 mmHg 40%
    10:00 0°C° 0 mm 1 mps 669 mmHg 40%
    11:00 +1°C° 0 mm 1 mps 669 mmHg 40%
    12:00 +2°C° 0 mm 1 mps 669 mmHg 40%
    13:00 +2°C° 0 mm 1 mps 669 mmHg 44%
    14:00 +2°C° 0 mm 1 mps 668 mmHg 49%
    15:00 +2°C° 0 mm 1 mps 668 mmHg 53%
    16:00 0°C° 0 mm 1 mps 668 mmHg 54%
    17:00 -1°C° 0 mm 1 mps 668 mmHg 54%
    18:00 -2°C° 0 mm 1 mps 668 mmHg 55%
    19:00 -4°C° 0 mm 2 mps 668 mmHg 51%
    20:00 -4°C° 0 mm 2 mps 669 mmHg 48%
    21:00 -4°C° 0 mm 2 mps 669 mmHg 44%
    22:00 -4°C° 0 mm 2 mps 669 mmHg 42%
    23:00 -4°C° 0 mm 2 mps 669 mmHg 40%

    20 January, Sunday

    Time Temperature Precipitation Wind Pressure Humidity
    00:00 -4°C° 0 mm 2 mps 669 mmHg 38%
    01:00 -4°C° 0 mm 2 mps 669 mmHg 38%
    02:00 -4°C° 0 mm 2 mps 669 mmHg 38%
    03:00 -4°C° 0 mm 2 mps 669 mmHg 38%
    04:00 -4°C° 0 mm 2 mps 669 mmHg 39%
    05:00 -4°C° 0 mm 2 mps 669 mmHg 39%
    06:00 -3°C° 0 mm 1 mps 669 mmHg 40%
    07:00 -2°C° 0 mm 1 mps 670 mmHg 40%
    08:00 -1°C° 0 mm 1 mps 670 mmHg 40%
    09:00 0°C° 0 mm 1 mps 670 mmHg 41%
    10:00 +1°C° 0 mm 1 mps 670 mmHg 41%
    11:00 +2°C° 0 mm 1 mps 670 mmHg 41%
    12:00 +2°C° 0 mm 1 mps 670 mmHg 41%
    13:00 +2°C° 0 mm 1 mps 670 mmHg 47%
    14:00 +2°C° 0 mm 1 mps 670 mmHg 53%
    15:00 +2°C° 0 mm 1 mps 670 mmHg 59%
    16:00 +1°C° 0 mm 1 mps 670 mmHg 64%
    17:00 0°C° 0 mm 1 mps 669 mmHg 68%
    18:00 -1°C° 0 mm 1 mps 669 mmHg 73%
    19:00 -1°C° 0 mm 1 mps 669 mmHg 71%
    20:00 -1°C° 0 mm 1 mps 669 mmHg 70%
    21:00 -1°C° 0 mm 1 mps 669 mmHg 69%
    22:00 -1°C° 0 mm 1 mps 669 mmHg 66%
    23:00 -2°C° 0 mm 1 mps 669 mmHg 64%

    21 January, Monday

    Time Temperature Precipitation Wind Pressure Humidity
    00:00 -2°C° 0 mm 1 mps 669 mmHg 62%
    01:00 -2°C° 0 mm 1 mps 668 mmHg 59%
    02:00 -2°C° 0 mm 1 mps 668 mmHg 57%
    03:00 -4°C° 0 mm 2 mps 668 mmHg 54%
    04:00 -4°C° 0 mm 2 mps 668 mmHg 53%
    05:00 -4°C° 0 mm 2 mps 667 mmHg 52%
    06:00 -4°C° 0 mm 2 mps 667 mmHg 51%
    07:00 -3°C° 0 mm 2 mps 667 mmHg 50%
    08:00 -2°C° 0 mm 2 mps 668 mmHg 49%
    09:00 0°C° 0 mm 1 mps 668 mmHg 47%
    10:00 +2°C° 0 mm 1 mps 667 mmHg 46%
    11:00 +3°C° 0 mm 1 mps 667 mmHg 45%
    12:00 +4°C° 0 mm 1 mps 667 mmHg 45%
    13:00 +4°C° 0 mm 1 mps 666 mmHg 48%
    14:00 +4°C° 0 mm 1 mps 666 mmHg 52%
    15:00 +4°C° 0 mm 1 mps 665 mmHg 56%
    16:00 +2°C° 0 mm 1 mps 665 mmHg 58%
    17:00 -1°C° 0 mm 2 mps 665 mmHg 60%
    18:00 -2°C° 0 mm 2 mps 664 mmHg 61%
    19:00 -2°C° 0 mm 2 mps 664 mmHg 56%
    20:00 -2°C° 0 mm 2 mps 664 mmHg 52%
    21:00 -4°C° 0 mm 3 mps 664 mmHg 47%
    22:00 -4°C° 0 mm 3 mps 663 mmHg 45%
    23:00 -4°C° 0 mm 3 mps 663 mmHg 43%
    Show more